Home > Weather > Buxar > Past weeks

Flag for India Weather for the Past 2 Weeks in Buxar, Bihar, India

Now
64 °F

Haze.


Feels Like: 64 °F
Forecast: 57 / 77 °F
Wind: No wind

Location: Nagpur Sonegaon

Current Time: Feb 8, 2016 at 6:46:22 AM

Latest Report: Feb 8, 2016 at 6:00 AM


Visibility: 2 mi

Pressure: 30.01 "Hg

Humidity: 56%

Dew point: 48 °F

Location of BuxarLocation

Historic Weather in Buxar — Graph

°F

Buxar Temperature Yesterday

Maximum temperature yesterday: 91 °F (at 4:00 PM)
Minimum temperature yesterday: 72 °F (at 1:30 AM)
Average temperature yesterday: 82 °F

High & Low Weather Summary for the Past Weeks

 TemperatureHumidityPressure
High97 °F (Jan 31, 3:30 PM)100% (Feb 3, 7:30 AM)30.27 "Hg (Feb 3, 7:30 AM)
Low48 °F (Jan 24, 5:30 AM)18% (Feb 4, 4:00 PM)29.86 "Hg (Feb 6, 3:00 PM)
Average75 °F44%29.99 "Hg
* Reported Jan 24 4:00 AM — Feb 8 4:00 AM, Buxar, Weather by CustomWeather, © 2016

Note: Actual official high and low records may vary slightly from our data, if they occured in-between our weather recording intervals... More about our weather records

Advertising

Buxar Weather History for the Previous 24 Hours

 ConditionsComfort  
Time TempWeatherWind HumidityBarometerVisibility
4:00 AM
Mon, Feb 8
64 °FHaze.No wind49%29.98 "Hg2 mi
3:30 AM66 °FHaze.No wind46%29.95 "Hg2 mi
2:30 AM73 °FHaze.6 mph41%29.95 "Hg2 mi
2:00 AM73 °FHaze.3 mph38%29.98 "Hg2 mi
1:30 AM73 °FHaze.3 mph38%29.98 "Hg2 mi
1:00 AM75 °FHaze.3 mph36%29.98 "Hg2 mi
12:30 AM75 °FHaze.3 mph36%29.98 "Hg2 mi
12:00 AM77 °FHaze.6 mph36%29.98 "Hg2 mi
11:30 PM
Sun, Feb 7
77 °FHaze.9 mph36%30.01 "Hg2 mi
11:00 PM79 °FHaze.8 mph34%30.01 "Hg2 mi
10:30 PM79 °FHaze.6 mph37%30.01 "Hg2 mi
10:00 PM81 °FHaze.3 mph34%30.01 "Hg2 mi
9:30 PM79 °FHaze.9 mph42%29.98 "Hg2 mi
8:30 PM79 °FHaze.5 mph42%29.98 "Hg2 mi
8:00 PM81 °FHaze.3 mph39%29.95 "Hg2 mi
7:30 PM81 °FHaze.2 mph37%29.95 "Hg2 mi
7:00 PM81 °FHaze.3 mph37%29.95 "Hg2 mi
6:30 PM82 °FHaze.3 mph37%29.92 "Hg2 mi
6:00 PM86 °FHaze.3 mph33%29.92 "Hg2 mi
4:30 PM91 °FHaze.5 mph30%29.89 "Hg2 mi
4:00 PM91 °FHaze.9 mph30%29.92 "Hg2 mi
3:00 PM90 °FHaze.8 mph33%29.92 "Hg2 mi
2:30 PM90 °FHaze.7 mph36%29.95 "Hg2 mi
2:00 PM88 °FHaze.7 mph38%29.95 "Hg2 mi
1:30 PM88 °FHaze.12 mph38%29.95 "Hg2 mi
1:00 PM86 °FHaze.10 mph40%29.98 "Hg2 mi
12:30 PM88 °FHaze.10 mph38%29.98 "Hg2 mi
12:00 PM86 °FHaze.8 mph40%30.01 "Hg2 mi
11:30 AM84 °FHaze.5 mph43%30.01 "Hg2 mi
10:30 AM81 °FHaze.6 mph45%30.04 "Hg2 mi
10:00 AM79 °FHaze.6 mph51%30.04 "Hg1 mi
9:30 AM77 °FHaze.3 mph51%30.04 "Hg1 mi
9:00 AM73 °FScattered clouds.2 mph57%30.04 "Hg1 mi
Weather by CustomWeather, © 2016

See weather overviewHow to use our weather pages